This demonstration page uses our WeatherBlox Daily Observations layout. Learn more.

Left ArrowRight Arrow

31.84235, -102.49876

Hourly Observations for July 9, 2022

Temp ( °F °C ) Dew Point ( °F °C ) Humidity (%) Winds ( mph kmh ) Pressure ( in mb ) Visibility ( mi km ) Precip ( " mm )
12:53 am 00:53 Mostly Cloudy with Haze 87 30.6 58 14.4 37 37 NE 16 26 29.97 1015 3 4 0.00 0.00
1:18 am 01:18 Cloudy with Haze 87 30.6 58 14.4 37 37 ENE 20 31 29.93 1014 3 5 0.00 0.00
1:53 am 01:53 Clear 85 29.4 59 15 42 42 E 15 24 30.01 1016 8 13 0.00 0.00
2:53 am 02:53 Mostly Clear 83 28.3 59 15 44 44 ESE 15 24 30.01 1016 10 16 0.00 0.00
3:53 am 03:53 Clear 82 27.8 59 15 46 46 ESE 14 22 30.00 1016 10 16 0.00 0.00
4:53 am 04:53 Clear 81 27.2 59 15 47 47 SE 12 19 29.99 1016 10 16 0.00 0.00
5:53 am 05:53 Clear 81 27.2 59 15 47 47 SSE 10 17 29.99 1016 10 16 0.00 0.00
6:53 am 06:53 Sunny 80 26.7 59 15 49 49 SSE 8 13 30.01 1016 10 16 0.00 0.00
7:53 am 07:53 Sunny 82 27.8 59 15 46 46 SSE 10 17 30.01 1016 10 16 0.00 0.00
8:53 am 08:53 Sunny 84 28.9 60 15.6 44 44 SSE 7 11 30.04 1017 10 16 0.00 0.00
9:53 am 09:53 Sunny 87 30.6 60 15.6 40 40 ESE 5 7 30.04 1017 10 16 0.00 0.00
10:53 am 10:53 Sunny 91 32.8 60 15.6 35 35 S 8 13 30.05 1018 10 16 0.00 0.00
11:53 am 11:53 Sunny 94 34.4 60 15.6 32 32 VRB 5 7 30.05 1018 10 16 0.00 0.00
12:53 pm 12:53 Sunny 95 35 60 15.6 31 31 ENE 8 13 30.05 1018 10 16 0.00 0.00
1:53 pm 13:53 Sunny 95 35 61 16.1 32 32 E 12 19 30.03 1017 10 16 0.00 0.00
2:53 pm 14:53 Sunny 98 36.7 57 13.9 25 25 ENE 14 22 30.01 1016 10 16 0.00 0.00
3:53 pm 15:53 Sunny 98 36.7 58 14.4 26 26 NE 14 22 29.99 1016 10 16 0.00 0.00
4:53 pm 16:53 Sunny 97 36.1 57 13.9 26 26 SE 13 20 29.98 1015 10 16 0.00 0.00
5:53 pm 17:53 Partly Cloudy 98 36.7 54 12.2 23 23 SE 10 17 29.96 1015 10 16 0.00 0.00
6:53 pm 18:53 Sunny 97 36.1 55 12.8 24 24 ENE 7 11 29.96 1014 10 16 0.00 0.00
7:53 pm 19:53 Sunny 96 35.6 55 12.8 25 25 ENE 7 11 29.95 1014 10 16 0.00 0.00
8:53 pm 20:53 Partly Cloudy 94 34.4 57 13.9 29 29 Calm 29.97 1015 10 16 0.00 0.00
9:53 pm 21:53 Clear 92 33.3 57 13.9 31 31 S 5 7 29.98 1015 10 16 0.00 0.00
10:53 pm 22:53 Clear 88 31.1 57 13.9 35 35 ENE 7 11 30.00 1016 10 16 0.00 0.00
11:53 pm 23:53 Clear 86 30 58 14.4 39 39 ESE 8 13 30.01 1016 10 16 0.00 0.00

Powered by AerisWeather